Fremont, MI

7:55 AM EST on November 15, 2019 (GMT -0500)
Fremont

Weather History for KFFX - September, 2019

Change the Weather History Date:

Saturday, September 28, 2019

  Actual Average (KMKG) Record (KMKG)
Temperature  
Mean Temperature 60 °F -  
Max Temperature 66 °F 65 °F 90 °F (1905)
Min Temperature 53 °F 45 °F 27 °F (1991)
Degree Days  
Heating Degree Days 6    
Growing Degree Days 10 (Base 50)    
Moisture  
Dew Point 52 °F    
Average Humidity 75    
Maximum Humidity 97    
Minimum Humidity 45    
Precipitation  
Precipitation 0.00 in - - ()
Sea Level Pressure  
Sea Level Pressure 30.06 in    
Wind  
Wind Speed 5 mph ()    
Max Wind Speed 10 mph    
Max Gust Speed 18 mph    
Visibility 9.8 miles    
Events Rain    
Averages and records for this station are not official NWS values.
T = Trace of Precipitation, MM = Missing Value Source: Averaged Metar Reports

Daily Weather History Graph

Daily Weather History Graph

Search for Another Location

Airport or City:

Astronomy

Sep. 28, 2019 Rise Set
Actual Time 7:37 AM EDT 7:30 PM EDT
Civil Twilight 7:09 AM EDT 7:59 PM EDT
Nautical Twilight 6:35 AM EDT 8:32 PM EDT
Astronomical Twilight 6:02 AM EDT 9:06 PM EDT
Moon 7:10 AM EDT (9/28) 7:57 PM EDT (9/28)
Length of Visible Light 12h 49m
Length of Day
11h 53m
Waning Crescent, 0% of the Moon is Illuminated
Sep 28
Waning Crescent
Sep 28
New
Oct 5
First Quarter
Oct 13
Full
Oct 21
Last Quarter

Hourly Weather History & Observations

Time (EDT) Temp. Dew Point Humidity Pressure Visibility Wind Dir Wind Speed Gust Speed Precip Events Conditions
12:15 AM 63.1 °F 62.1 °F 96% 29.80 in 7.0 mi NW 4.6 mph - N/A Rain Light Rain
12:16 AM 63.1 °F 62.1 °F 96% 29.80 in 7.0 mi NW 4.6 mph - N/A Rain Light Rain
12:35 AM 63.0 °F 61.9 °F 96% 29.80 in 10.0 mi NNW 3.5 mph - N/A   Overcast
12:40 AM 63.0 °F 61.9 °F 96% 29.80 in 10.0 mi Calm Calm - N/A   Overcast
12:57 AM 62.8 °F 61.7 °F 96% 29.80 in 10.0 mi NNW 3.5 mph - N/A   Overcast
1:16 AM 62.6 °F 61.7 °F 97% 29.80 in 10.0 mi North 3.5 mph - N/A   Overcast
1:35 AM 62.2 °F 61.2 °F 96% 29.81 in 10.0 mi Calm Calm - N/A   Overcast
1:55 AM 62.1 °F 60.8 °F 96% 29.82 in 10.0 mi North 3.5 mph - N/A   Overcast
1:56 AM 62.1 °F 60.8 °F 96% 29.82 in 10.0 mi North 3.5 mph - N/A   Overcast
2:19 AM 61.7 °F 60.8 °F 97% 29.84 in 10.0 mi North 4.6 mph - N/A   Overcast
2:37 AM 61.7 °F 60.4 °F 96% 29.85 in 10.0 mi North 4.6 mph - N/A   Overcast
2:55 AM 61.2 °F 59.9 °F 96% 29.85 in 10.0 mi NNE 3.5 mph - N/A   Overcast
3:15 AM 60.8 °F 59.5 °F 96% 29.85 in 7.0 mi NE 5.8 mph - N/A   Overcast
3:35 AM 60.8 °F 59.4 °F 95% 29.85 in 10.0 mi ENE 5.8 mph - N/A   Overcast
3:40 AM 60.8 °F 59.2 °F 94% 29.85 in 10.0 mi ENE 4.6 mph - N/A   Overcast
3:58 AM 60.8 °F 59.4 °F 95% 29.86 in 10.0 mi NNE 3.5 mph - N/A   Overcast
4:16 AM 60.4 °F 59.2 °F 96% 29.86 in 10.0 mi Calm Calm - N/A   Overcast
4:35 AM 60.3 °F 59.2 °F 96% 29.87 in 10.0 mi North 4.6 mph - N/A   Overcast
4:55 AM 60.3 °F 59.2 °F 96% 29.88 in 10.0 mi NNE 3.5 mph - N/A   Overcast
4:56 AM 60.3 °F 59.2 °F 96% 29.88 in 10.0 mi NNE 3.5 mph - N/A   Overcast
5:19 AM 60.4 °F 59.4 °F 96% 29.91 in 10.0 mi North 3.5 mph - N/A   Overcast
5:37 AM 60.3 °F 59.0 °F 96% 29.92 in 10.0 mi NNE 3.5 mph - N/A   Overcast
5:55 AM 60.1 °F 59.0 °F 96% 29.92 in 10.0 mi North 3.5 mph - N/A   Overcast
6:15 AM 59.9 °F 58.8 °F 96% 29.92 in 10.0 mi NNE 5.8 mph - N/A   Overcast
6:35 AM 59.9 °F 58.3 °F 94% 29.93 in 10.0 mi North 4.6 mph - N/A   Overcast
6:40 AM 59.9 °F 58.3 °F 94% 29.93 in 10.0 mi North 4.6 mph - N/A   Overcast
6:58 AM 59.5 °F 58.1 °F 95% 29.95 in 10.0 mi North 5.8 mph - N/A   Overcast
7:16 AM 59.4 °F 57.7 °F 94% 29.95 in 10.0 mi North 5.8 mph - N/A   Overcast
7:35 AM 59.0 °F 57.4 °F 94% 29.97 in 10.0 mi North 5.8 mph - N/A   Overcast
7:36 AM 59.0 °F 57.4 °F 94% 29.97 in 10.0 mi North 4.6 mph - N/A   Overcast
7:55 AM 58.5 °F 57.2 °F 96% 29.98 in 10.0 mi North 6.9 mph - N/A   Overcast
8:19 AM 58.1 °F 56.3 °F 94% 30.00 in 10.0 mi North 8.1 mph - N/A   Overcast
8:37 AM 58.1 °F 56.3 °F 94% 30.01 in 10.0 mi North 8.1 mph - N/A   Overcast
8:55 AM 58.1 °F 56.3 °F 94% 30.03 in 10.0 mi North 4.6 mph - N/A   Mostly Cloudy
9:15 AM 58.8 °F 56.5 °F 92% 30.04 in 10.0 mi NNE 3.5 mph - N/A   Overcast
9:16 AM 58.8 °F 56.3 °F 91% 30.04 in 10.0 mi NNE 6.9 mph - N/A   Overcast
9:35 AM 58.6 °F 55.9 °F 91% 30.05 in 10.0 mi North 5.8 mph - N/A   Overcast
9:40 AM 59.0 °F 55.8 °F 89% 30.06 in 10.0 mi North 6.9 mph - N/A   Overcast
9:58 AM 59.5 °F 55.8 °F 87% 30.07 in 10.0 mi North 9.2 mph - N/A   Overcast
10:16 AM 59.9 °F 54.9 °F 83% 30.06 in 10.0 mi NE 9.2 mph - N/A   Overcast
10:35 AM 59.5 °F 54.5 °F 83% 30.07 in 10.0 mi NE 6.9 mph - N/A   Overcast
10:36 AM 59.7 °F 54.1 °F 82% 30.07 in 10.0 mi NNE 5.8 mph - N/A   Overcast
10:55 AM 59.9 °F 51.3 °F 73% 30.08 in 10.0 mi NNE 9.2 mph - N/A   Overcast
11:19 AM 60.6 °F 49.1 °F 66% 30.08 in 10.0 mi North 9.2 mph - N/A   Overcast
11:37 AM 60.4 °F 50.2 °F 69% 30.09 in 10.0 mi NNE 6.9 mph - N/A   Overcast
11:55 AM 61.0 °F 48.7 °F 64% 30.10 in 10.0 mi NNE 6.9 mph - N/A   Overcast
11:56 AM 61.0 °F 48.7 °F 64% 30.10 in 10.0 mi NNE 9.2 mph - N/A   Overcast
12:15 PM 61.9 °F 48.9 °F 62% 30.10 in 10.0 mi North 8.1 mph 16.1 mph N/A   Overcast
12:16 PM 62.2 °F 49.1 °F 62% 30.10 in 10.0 mi North 6.9 mph 16.1 mph N/A   Overcast
12:35 PM 62.6 °F 47.8 °F 58% 30.11 in 10.0 mi North 10.4 mph 18.4 mph N/A   Overcast
12:40 PM 62.8 °F 47.7 °F 58% 30.11 in 10.0 mi North 10.4 mph 18.4 mph N/A   Overcast
12:58 PM 61.0 °F 48.0 °F 62% 30.12 in 10.0 mi North 10.4 mph 17.3 mph N/A   Overcast
1:16 PM 61.0 °F 48.0 °F 62% 30.12 in 10.0 mi NNE 8.1 mph - N/A   Overcast
1:35 PM 62.8 °F 47.1 °F 57% 30.12 in 10.0 mi NNE 6.9 mph - N/A   Overcast
1:55 PM 62.6 °F 47.1 °F 57% 30.12 in 10.0 mi NNE 6.9 mph - N/A   Overcast
1:56 PM 62.8 °F 47.3 °F 57% 30.13 in 10.0 mi NNE 8.1 mph - N/A   Overcast
2:19 PM 63.9 °F 46.4 °F 53% 30.14 in 10.0 mi NNW 10.4 mph 16.1 mph N/A   Overcast
2:37 PM 63.5 °F 46.0 °F 53% 30.15 in 10.0 mi NNW 9.2 mph - N/A   Mostly Cloudy
2:55 PM 64.4 °F 46.9 °F 53% 30.15 in 10.0 mi North 4.6 mph - N/A   Scattered Clouds
3:15 PM 63.1 °F 46.6 °F 55% 30.15 in 10.0 mi North 5.8 mph - N/A   Scattered Clouds
3:35 PM 64.8 °F 45.3 °F 49% 30.15 in 7.0 mi North 9.2 mph - N/A   Mostly Cloudy
3:39 PM 65.1 °F 44.4 °F 47% 30.16 in 7.0 mi North 8.1 mph - N/A   Scattered Clouds
3:58 PM 65.1 °F 44.6 °F 47% 30.17 in 10.0 mi NNE 6.9 mph - N/A   Mostly Cloudy
4:16 PM 64.0 °F 45.0 °F 50% 30.17 in 10.0 mi North 6.9 mph - N/A   Mostly Cloudy
4:35 PM 65.5 °F 44.1 °F 46% 30.18 in 10.0 mi Calm Calm - N/A   Scattered Clouds
4:55 PM 63.5 °F 44.4 °F 50% 30.18 in 10.0 mi NNE 3.5 mph - N/A   Scattered Clouds
5:19 PM 66.7 °F 45.0 °F 45% 30.18 in 10.0 mi East 8.1 mph - N/A   Mostly Cloudy
5:37 PM 63.3 °F 45.3 °F 52% 30.19 in 10.0 mi Calm Calm - N/A   Scattered Clouds
5:55 PM 65.3 °F 43.5 °F 45% 30.19 in 10.0 mi Calm Calm - N/A   Mostly Cloudy
6:15 PM 64.6 °F 44.2 °F 48% 30.20 in 10.0 mi ENE 4.6 mph - N/A   Mostly Cloudy
6:16 PM 64.4 °F 44.6 °F 49% 30.20 in 10.0 mi East 4.6 mph - N/A   Mostly Cloudy
6:35 PM 62.1 °F 45.9 °F 55% 30.21 in 10.0 mi NE 3.5 mph - N/A   Clear
6:58 PM 62.6 °F 45.1 °F 53% 30.21 in 10.0 mi Calm Calm - N/A   Scattered Clouds
7:16 PM 61.9 °F 45.5 °F 55% 30.21 in 10.0 mi NE 4.6 mph - N/A   Scattered Clouds
7:35 PM 60.8 °F 45.9 °F 58% 30.22 in 10.0 mi NNE 5.8 mph - N/A   Clear
7:36 PM 60.8 °F 45.9 °F 58% 30.22 in 10.0 mi NNE 5.8 mph - N/A   Clear
7:55 PM 59.5 °F 46.0 °F 61% 30.22 in 10.0 mi NNE 6.9 mph - N/A   Clear
7:56 PM 59.7 °F 46.0 °F 61% 30.22 in 10.0 mi NNE 6.9 mph - N/A   Clear
8:19 PM 59.2 °F 46.0 °F 62% 30.22 in 10.0 mi NNE 4.6 mph - N/A   Clear
8:37 PM 58.1 °F 46.4 °F 65% 30.22 in 10.0 mi NNE 5.8 mph - N/A   Clear
8:55 PM 57.4 °F 45.7 °F 65% 30.23 in 10.0 mi NNE 6.9 mph - N/A   Clear
9:15 PM 56.7 °F 45.5 °F 66% 30.23 in 10.0 mi NNE 5.8 mph - N/A   Clear
9:35 PM 55.9 °F 44.2 °F 65% 30.23 in 10.0 mi NE 5.8 mph - N/A   Clear
9:40 PM 55.9 °F 44.1 °F 64% 30.24 in 10.0 mi NNE 5.8 mph - N/A   Clear
9:58 PM 55.2 °F 43.2 °F 64% 30.24 in 10.0 mi NE 4.6 mph - N/A   Clear
10:16 PM 55.4 °F 42.8 °F 63% 30.25 in 10.0 mi NE 4.6 mph - N/A   Clear
10:35 PM 54.5 °F 43.0 °F 65% 30.25 in 10.0 mi NE 3.5 mph - N/A   Clear
10:55 PM 54.5 °F 42.4 °F 64% 30.26 in 10.0 mi NE 5.8 mph - N/A   Clear
11:19 PM 54.1 °F 42.8 °F 66% 30.28 in 10.0 mi ENE 5.8 mph - N/A   Clear
11:37 PM 53.8 °F 43.0 °F 67% 30.28 in 10.0 mi ENE 4.6 mph - N/A   Clear
11:55 PM 53.6 °F 42.8 °F 67% 30.29 in 10.0 mi ENE 5.8 mph - N/A   Clear